TimePDT,TemperatureF,Dew PointF,Humidity,Sea Level PressureIn,VisibilityMPH,Wind Direction,Wind SpeedMPH,Gust SpeedMPH,PrecipitationIn,Events,Conditions,WindDirDegrees,DateUTC
12:15 AM,46.0,37.0,71,30.23,10.0,SW,4.6,-,N/A,,Overcast,230,2013-06-14 07:15:00
12:35 AM,45.7,36.9,71,30.23,10.0,WSW,5.8,-,N/A,,Overcast,240,2013-06-14 07:35:00
12:55 AM,45.9,37.4,72,30.23,10.0,WSW,5.8,-,N/A,,Overcast,250,2013-06-14 07:55:00
1:15 AM,46.4,37.6,71,30.23,10.0,West,5.8,-,N/A,,Overcast,260,2013-06-14 08:15:00
1:35 AM,46.4,37.8,72,30.23,10.0,WSW,5.8,-,N/A,,Overcast,250,2013-06-14 08:35:00
1:55 AM,46.4,38.1,73,30.23,10.0,West,8.1,-,N/A,,Overcast,270,2013-06-14 08:55:00
2:15 AM,45.5,37.8,74,30.22,10.0,West,10.4,-,N/A,,Mostly Cloudy,270,2013-06-14 09:15:00
2:35 AM,46.0,38.3,74,30.23,10.0,West,8.1,-,N/A,,Mostly Cloudy,280,2013-06-14 09:35:00
2:55 AM,45.9,38.3,75,30.22,10.0,West,9.2,-,N/A,,Overcast,260,2013-06-14 09:55:00
3:15 AM,45.7,38.3,75,30.22,10.0,West,8.1,-,N/A,,Overcast,280,2013-06-14 10:15:00
3:35 AM,45.9,38.3,75,30.22,10.0,West,8.1,-,N/A,,Overcast,260,2013-06-14 10:35:00
3:55 AM,45.7,38.1,75,30.23,10.0,West,8.1,-,N/A,,Overcast,260,2013-06-14 10:55:00
4:15 AM,45.5,37.9,75,30.23,10.0,West,6.9,-,N/A,,Overcast,270,2013-06-14 11:15:00
4:35 AM,45.5,37.9,75,30.24,10.0,West,5.8,-,N/A,,Overcast,260,2013-06-14 11:35:00
4:55 AM,45.7,37.9,74,30.24,10.0,West,6.9,-,N/A,,Overcast,260,2013-06-14 11:55:00
5:15 AM,45.5,37.9,75,30.24,10.0,West,4.6,-,N/A,,Overcast,260,2013-06-14 12:15:00
5:35 AM,45.5,38.1,75,30.24,10.0,West,3.5,-,N/A,,Overcast,260,2013-06-14 12:35:00
5:55 AM,45.9,37.8,73,30.24,10.0,SW,4.6,-,N/A,,Overcast,230,2013-06-14 12:55:00
6:15 AM,46.6,37.8,71,30.24,10.0,WSW,4.6,-,N/A,,Overcast,250,2013-06-14 13:15:00
6:35 AM,46.8,37.6,70,30.25,10.0,West,3.5,-,N/A,,Overcast,260,2013-06-14 13:35:00
6:55 AM,46.8,37.6,70,30.24,10.0,West,4.6,-,N/A,,Mostly Cloudy,260,2013-06-14 13:55:00
7:15 AM,48.2,37.9,68,30.24,10.0,West,5.8,-,N/A,,Scattered Clouds,270,2013-06-14 14:15:00
7:35 AM,48.6,37.9,67,30.24,10.0,West,4.6,-,N/A,,Clear,270,2013-06-14 14:35:00
7:55 AM,49.3,37.2,63,30.24,10.0,West,4.6,-,N/A,,Clear,270,2013-06-14 14:55:00
8:15 AM,50.0,37.2,62,30.24,10.0,WNW,4.6,-,N/A,,Clear,300,2013-06-14 15:15:00
8:35 AM,51.6,37.0,58,30.24,10.0,NW,4.6,-,N/A,,Clear,310,2013-06-14 15:35:00
8:55 AM,52.2,36.9,56,30.24,10.0,WSW,3.5,-,N/A,,Clear,250,2013-06-14 15:55:00
9:15 AM,53.6,36.3,52,30.24,10.0,SW,5.8,-,N/A,,Clear,220,2013-06-14 16:15:00
9:35 AM,53.4,36.0,52,30.24,10.0,West,4.6,-,N/A,,Clear,270,2013-06-14 16:35:00
9:55 AM,55.0,35.4,48,30.23,10.0,NNE,6.9,-,N/A,,Clear,20,2013-06-14 16:55:00
10:15 AM,56.3,35.1,45,30.21,10.0,East,3.5,-,N/A,,Clear,100,2013-06-14 17:15:00
10:35 AM,56.8,34.9,44,30.21,10.0,SSE,5.8,-,N/A,,Clear,150,2013-06-14 17:35:00
10:55 AM,57.6,34.7,42,30.21,10.0,NNE,8.1,-,N/A,,Clear,30,2013-06-14 17:55:00
11:15 AM,58.8,34.7,40,30.20,10.0,ENE,4.6,-,N/A,,Clear,70,2013-06-14 18:15:00
11:35 AM,59.4,33.6,38,30.20,10.0,ENE,4.6,-,N/A,,Clear,60,2013-06-14 18:35:00
11:55 AM,62.1,34.5,36,30.19,10.0,East,4.6,18.4,N/A,,Clear,100,2013-06-14 18:55:00
12:15 PM,60.8,33.4,36,30.19,10.0,NNW,4.6,-,N/A,,Clear,340,2013-06-14 19:15:00
12:35 PM,63.9,34.3,33,30.18,10.0,East,6.9,-,N/A,,Clear,100,2013-06-14 19:35:00
12:55 PM,63.1,33.8,33,30.17,10.0,East,3.5,-,N/A,,Clear,80,2013-06-14 19:55:00
1:15 PM,64.8,34.3,32,30.17,10.0,North,3.5,-,N/A,,Clear,350,2013-06-14 20:15:00
1:35 PM,66.2,33.4,30,30.16,10.0,East,6.9,-,N/A,,Clear,100,2013-06-14 20:35:00
1:55 PM,67.1,33.4,29,30.15,10.0,North,4.6,-,N/A,,Clear,360,2013-06-14 20:55:00
2:15 PM,66.0,32.2,28,30.15,10.0,East,3.5,16.1,N/A,,Clear,90,2013-06-14 21:15:00
2:35 PM,67.1,32.9,28,30.14,10.0,ENE,5.8,-,N/A,,Clear,60,2013-06-14 21:35:00
2:55 PM,69.1,32.5,26,30.13,10.0,North,5.8,-,N/A,,Clear,10,2013-06-14 21:55:00
3:15 PM,68.4,32.4,26,30.12,10.0,NW,6.9,-,N/A,,Clear,320,2013-06-14 22:15:00
3:35 PM,69.4,32.4,25,30.12,10.0,NW,5.8,-,N/A,,Clear,310,2013-06-14 22:35:00
3:55 PM,69.4,32.5,26,30.11,10.0,NW,4.6,-,N/A,,Clear,320,2013-06-14 22:55:00
4:15 PM,70.3,32.0,24,30.11,10.0,NNW,5.8,-,N/A,,Clear,330,2013-06-14 23:15:00
4:35 PM,70.3,31.6,24,30.10,10.0,WSW,3.5,-,N/A,,Clear,240,2013-06-14 23:35:00
4:55 PM,69.8,31.5,24,30.10,10.0,WSW,4.6,-,N/A,,Clear,250,2013-06-14 23:55:00
5:15 PM,70.3,31.3,24,30.09,10.0,SE,4.6,-,N/A,,Clear,130,2013-06-15 00:15:00
5:35 PM,70.7,31.8,24,30.08,10.0,Calm,Calm,-,N/A,,Clear,0,2013-06-15 00:35:00
5:55 PM,70.3,31.8,24,30.07,10.0,WNW,5.8,-,N/A,,Clear,290,2013-06-15 00:55:00
6:15 PM,71.2,32.4,24,30.07,10.0,NNE,9.2,-,N/A,,Clear,20,2013-06-15 01:15:00
6:35 PM,70.0,30.4,23,30.06,10.0,Calm,Calm,-,N/A,,Clear,0,2013-06-15 01:35:00
6:55 PM,69.8,31.6,24,30.06,10.0,NW,5.8,-,N/A,,Clear,310,2013-06-15 01:55:00
7:15 PM,69.4,31.8,25,30.06,10.0,WNW,5.8,-,N/A,,Clear,300,2013-06-15 02:15:00
7:35 PM,68.9,31.8,25,30.06,10.0,NE,3.5,-,N/A,,Clear,40,2013-06-15 02:35:00
7:55 PM,68.2,31.8,26,30.06,10.0,NE,3.5,-,N/A,,Clear,50,2013-06-15 02:55:00
8:15 PM,66.0,31.8,28,30.06,10.0,Calm,Calm,-,N/A,,Clear,0,2013-06-15 03:15:00
8:35 PM,66.6,30.4,26,30.06,10.0,Calm,Calm,-,N/A,,Clear,0,2013-06-15 03:35:00
8:55 PM,66.0,29.8,26,30.06,10.0,Calm,Calm,-,N/A,,Clear,0,2013-06-15 03:55:00
9:15 PM,64.0,29.7,27,30.06,10.0,Calm,Calm,-,N/A,,Clear,0,2013-06-15 04:15:00
9:35 PM,65.7,29.1,25,30.06,10.0,Calm,Calm,-,N/A,,Clear,0,2013-06-15 04:35:00
9:55 PM,58.6,31.8,36,30.06,10.0,East,8.1,-,N/A,,Clear,90,2013-06-15 04:55:00
10:15 PM,56.8,32.0,39,30.07,10.0,ESE,8.1,-,N/A,,Clear,110,2013-06-15 05:15:00
10:35 PM,56.3,32.9,41,30.08,10.0,East,8.1,-,N/A,,Clear,90,2013-06-15 05:35:00
10:55 PM,56.5,32.2,40,30.07,10.0,East,10.4,-,N/A,,Clear,100,2013-06-15 05:55:00
11:15 PM,54.5,33.4,45,30.07,10.0,ESE,8.1,-,N/A,,Clear,120,2013-06-15 06:15:00
11:35 PM,53.6,33.3,46,30.07,10.0,SE,8.1,-,N/A,,Clear,130,2013-06-15 06:35:00
11:55 PM,53.8,32.7,45,30.07,10.0,ESE,5.8,-,N/A,,Clear,120,2013-06-15 06:55:00